This is the latest recevied weather packets stored in our database for station/object CE7LGA-10. If no packets are shown the sender has not sent any weather packets the latest 10 day(s).
| Time | Temp. | Humidity | Pressure | Rain* | Wind** | Luminosity | Snow |
|---|---|---|---|---|---|---|---|
| 1787410403 | 12.22° C | 65% | 1010.1 hPa | - | - | - | - |
| 1787409503 | 11.11° C | 67% | 1010.2 hPa | - | - | - | - |
| 1787408603 | 10.56° C | 67% | 1010.1 hPa | - | - | - | - |
| 1787407703 | 10° C | 68% | 1010 hPa | - | - | - | - |
| 1787406803 | 9.44° C | 67% | 1009.9 hPa | - | - | - | - |
| 1787405902 | 9.44° C | 67% | 1009.9 hPa | - | - | - | - |
| 1787405002 | 9.44° C | 67% | 1009.8 hPa | - | - | - | - |
| 1787404102 | 9.44° C | 67% | 1009.8 hPa | - | - | - | - |
| 1787403202 | 8.89° C | 66% | 1010 hPa | - | - | - | - |
| 1787402302 | 8.89° C | 66% | 1009.8 hPa | - | - | - | - |
| 1787401402 | 8.89° C | 66% | 1009.7 hPa | - | - | - | - |
| 1787400502 | 8.89° C | 67% | 1009.7 hPa | - | - | - | - |
| 1787399602 | 8.89° C | 67% | 1009.7 hPa | - | - | - | - |
| 1787398701 | 8.89° C | 66% | 1009.5 hPa | - | - | - | - |
| 1787397801 | 8.89° C | 66% | 1009.9 hPa | - | - | - | - |
| 1787396901 | 9.44° C | 67% | 1010 hPa | - | - | - | - |
| 1787396001 | 9.44° C | 66% | 1009.7 hPa | - | - | - | - |
| 1787395104 | 9.44° C | 66% | 1009.6 hPa | - | - | - | - |
| 1787394204 | 9.44° C | 66% | 1010.1 hPa | - | - | - | - |
| 1787393304 | 9.44° C | 66% | 1010.1 hPa | - | - | - | - |
| 1787392404 | 9.44° C | 66% | 1010.2 hPa | - | - | - | - |
| 1787391504 | 9.44° C | 66% | 1010.2 hPa | - | - | - | - |
| 1787390604 | 9.44° C | 66% | 1010.3 hPa | - | - | - | - |
| 1787389704 | 9.44° C | 66% | 1010.2 hPa | - | - | - | - |
| 1787388804 | 10° C | 66% | 1010.2 hPa | - | - | - | - |
* Rain since midnight (hover to see other rain measurements)
** Current wind speed in m/s (hover to see current wind gust speed)